STARLINK-37795, 69311

Orbit data source: Space-Track

STARLINK-37795, 69311 is a payload satellite owned by SpaceX/Seattle (US) in SSO that was launched on Sat, 30 May 2026 UTC via an FALCON 9 launch vehicle from the Air Force Western Test Range (AFWTR). Payload-class satellites include a variety of spacecraft equipped with specific instruments for various scientific and technological missions. These include communications satellites like Starlink; space stations such as the ISS; scientific satellites like the Hubble; Earth observation satellites from companies like Planet Labs, Umbra, and HawkEye 360; GPS; miniature CubeSats for education and research; and military/defense satellites.

Loading next visibility...
Identifier
69311, 2026-119R
Orbit
SSO
Country
Flag of USUS
Related business
Manufacturer
SpaceX/Seattle
Mission
Operational spacecraft
Bus & Motor
STARLINK V2MO, Unknown motor
Mass
575 kg wet, ~530 kg dry
Launch date (UTC)
2026-05-30 (2 months ago)
Launch vehicle
FALCON 9
Launch site
Air Force Western Test Range (AFWTR)
Object type
Payload
Rocket body
Debris
Shape & HBR
BOX + PAN, 17.7 m
Radar Cross Section
Large (>1 m²)

Expand to show TLE details & history
Last TLE update: 12 hours ago

TLE from 12 hours ago
0 STARLINK-37795
1 69311U 26119R   26206.52184770  .00015431  00000-0  47913-3 0  9990
2 69311  97.2815 232.1001 0001598  89.8175 270.3251 15.33457963  9931
Epoch: 2026-07-25T12:31Z
TLE epoch observation values (Epoch: 2026-07-25T12:31:27.641Z)
Latitude
Longitude
101.002°
Altitude
468.611 km
Speed
7.632 km/s
True Right ascension
15h 28m 24s
True Declination
0° 00' 00"
Sunlit
Object was in daylight at epoch
Visualization orbit readout
Latitude
Unknown
Longitude
Unknown
Altitude
Unknown
Speed
Unknown
Apparent Right ascension
Unknown
Apparent Declination
Unknown
Sunlit
N/A
Visualization observer readout
Local Sidereal Time
13:35:46
Azimuth
Unknown
Elevation
Unknown
Doppler factor
Unknown
Orbital elements
Apogee altitude
463.54 km
Perigee altitude
461.354 km
Semi-major axis
6,840.584 km
Eccentricity
0.00016
Inclination
97.2815°
RAAN
232.1001°
Arg. of periapsis
89.8175°
True anomaly
270.30679°
Mean anomaly
270.3251°
Eccentric anomaly
270.31594°
Mean motion
3.83622 °/min
Orbital period
93.84 mins
BSTAR
0.00047913
Loading maneuver chart data...
Computing Atmospheric mass density...
Loading historical data...
Loading historical data...
Loading historical data...
Loading historical data...
Loading historical data...
Loading historical data...
Loading historical data...

Documentation

Showing up to 5 results
|